Location: Ashtead
(51.3000°N, 0.3000°W)
Time: 19:39:43
(UTC+00:00)

Helios 1A - Pass Details

Date: 26 September 2023
Orbit: 572 x 586 km, 98.3° (Epoch: 01 December)

Event Time Altitude Azimuth Distance (km) Brightness Sun altitude
Rises 04:07:31 0° 157° (SSE) 2,809 6.5 -17.0°
Reaches altitude 10° 04:09:40 10° 156° (SSE) 1,910 5.6 -16.7°
Maximum altitude 04:13:48 71° 73° (ENE) 623 3.2 -16.1°
Drops below altitude 10° 04:17:56 10° 349° (N) 1,915 5.7 -15.5°
Sets 04:20:06 0° 347° (NNW) 2,816 6.5 -15.1°
